Coolangatta Observation History
Time Wind Speed Temp Pressure Rel. Hum Rain
10/09:30am S 5-6 kts 17.6°c 1027.7 hPa 85% 0.0mm
10/09:00am S 4-5 kts 16.8°c 1027.6 hPa 89% 8.6mm
10/08:30am SW 5-7 kts 16.5°c 1027.6 hPa 89% 8.6mm
10/08:00am SSE 5-6 kts 15.5°c 1027.5 hPa 92% 8.6mm
10/07:30am SSW 6-8 kts 15.0°c 1027.4 hPa 92% 8.6mm
10/07:00am SSW 4-5 kts 14.4°c 1027.3 hPa 95% 8.6mm
10/06:30am SW 3-5 kts 14.3°c 1027.3 hPa 95% 8.6mm
10/06:00am SSW 5-6 kts 14.3°c 1027.0 hPa 95% 8.6mm
10/05:30am SW 4-7 kts 14.4°c 1026.9 hPa 95% 8.6mm
10/05:00am SW 5-7 kts 14.4°c 1026.8 hPa 96% 8.6mm
10/04:30am WSW 5-6 kts 14.4°c 1026.6 hPa 95% 8.6mm
10/04:00am S 4-5 kts 14.3°c 1026.8 hPa 95% 8.4mm
10/03:30am S 6-7 kts 14.0°c 1026.4 hPa 94% 8.2mm
10/03:00am SSE 6-9 kts 14.4°c 1026.7 hPa 95% 8.2mm
10/02:30am SSW 3-4 kts 14.0°c 1026.8 hPa 95% 8.2mm
10/02:00am CALM 0-1 kts 14.1°c 1027.1 hPa 95% 8.2mm
10/01:30am SW 5-7 kts 14.1°c 1027.2 hPa 96% 8.2mm
10/01:00am SSW 3-4 kts 13.9°c 1027.6 hPa 96% 8.2mm
10/12:30am SSW 4-5 kts 13.8°c 1027.7 hPa 95% 8.2mm
10/12:00am SW 5-6 kts 14.4°c 1027.7 hPa 95% 8.2mm
Time Wind Speed Temp Pressure Rel. Hum Rain
09/11:30pm SW 6-8 kts 14.8°c 1028.0 hPa 96% 8.2mm
09/11:00pm SSW 4-5 kts 14.7°c 1028.0 hPa 95% 8.0mm
09/10:30pm SSW 4-5 kts 14.7°c 1028.0 hPa 95% 7.6mm
09/10:00pm SW 7-11 kts 14.8°c 1028.2 hPa 96% 7.6mm
09/09:36pm SW 7-10 kts 14.9°c 1028.2 hPa 96% 7.6mm
09/09:30pm SW 6-8 kts 14.9°c 1028.3 hPa 96% 7.4mm
09/09:00pm SSW 5-8 kts 15.0°c 1028.7 hPa 95% 4.8mm
09/08:30pm ENE 2-4 kts 15.0°c 1028.4 hPa 95% 3.0mm
09/08:15pm SSE 4-7 kts 15.1°c 1028.4 hPa 94% 2.4mm
09/08:00pm SW 7-10 kts 14.9°c 1027.8 hPa 93% 1.8mm
09/07:30pm SW 4-6 kts 14.8°c 1027.8 hPa 93% 1.8mm
09/07:00pm SSW 8-11 kts 15.0°c 1028.0 hPa 92% 1.8mm
09/06:30pm S 8-12 kts 15.2°c 1027.8 hPa 92% 1.8mm
09/06:00pm SSW 9-12 kts 15.2°c 1027.4 hPa 93% 1.6mm
09/05:30pm SSW 8-13 kts 15.3°c 1027.3 hPa 94% 1.6mm
09/05:20pm S 8-10 kts 15.3°c 1027.4 hPa 94% 1.6mm
09/05:05pm S 8-12 kts 15.5°c 1027.4 hPa 93% 1.4mm
09/05:00pm S 7-9 kts 15.6°c 1027.5 hPa 92% 1.0mm
09/04:30pm SSW 7-10 kts 15.8°c 1027.3 hPa 92% 1.0mm
09/04:06pm S 7-11 kts 16.0°c 1027.2 hPa 92% 1.0mm
09/04:00pm S 7-9 kts 16.1°c 1027.3 hPa 92% 1.0mm
09/03:45pm S 9-12 kts 16.6°c 1027.2 hPa 89% 0.6mm
09/03:30pm S 6-9 kts 17.1°c 1027.1 hPa 85% 0.0mm
09/03:00pm S 7-9 kts 17.3°c 1027.4 hPa 81% 0.0mm
09/02:30pm SSW 7-9 kts 17.4°c 1027.4 hPa 82% 0.0mm
09/02:00pm S 8-11 kts 17.9°c 1027.3 hPa 79% 0.0mm
09/01:30pm SSE 8-15 kts 17.9°c 1027.5 hPa 76% 0.0mm
09/01:00pm S 8-12 kts 18.6°c 1027.7 hPa 75% 0.0mm
09/12:30pm S 8-11 kts 18.2°c 1028.0 hPa 76% 0.0mm
09/12:00pm S 10-12 kts 18.2°c 1028.7 hPa 76% 0.0mm
09/11:30am S 10-13 kts 18.7°c 1029.2 hPa 74% 0.0mm
09/11:00am SSW 7-9 kts 17.9°c 1029.5 hPa 78% 0.0mm
09/10:30am SSE 8-10 kts 17.1°c 1029.7 hPa 81% 0.0mm
09/10:00am SSE 5-8 kts 17.0°c 1030.0 hPa 79% 0.0mm
09/09:30am SW 4-6 kts 16.3°c 1029.9 hPa 82% 0.0mm
09/09:00am SSW 6-9 kts 15.8°c 1029.6 hPa 88% 19.2mm
09/08:30am SW 8-11 kts 15.0°c 1029.2 hPa 90% 19.2mm
09/08:28am SW 8-11 kts 14.9°c 1029.1 hPa 91% 19.2mm
09/08:02am S 5-6 kts 14.7°c 1029.2 hPa 93% 19.0mm
09/08:00am S 5-6 kts 14.6°c 1029.1 hPa 93% 19.0mm
09/07:30am SW 6-7 kts 14.5°c 1028.5 hPa 93% 18.8mm
09/07:00am SSW 7-11 kts 14.3°c 1028.3 hPa 91% 18.0mm
09/06:51am SSW 9-11 kts 14.3°c 1028.1 hPa 91% 18.0mm
09/06:30am SSW 7-9 kts 14.2°c 1028.0 hPa 93% 17.6mm
09/06:10am SSW 5-8 kts 14.1°c 1027.8 hPa 94% 17.2mm
09/06:00am SSW 6-8 kts 14.1°c 1027.8 hPa 94% 16.6mm
09/05:58am SSW 6-8 kts 14.1°c 1027.7 hPa 94% 16.6mm
09/05:30am SW 4-6 kts 14.3°c 1027.7 hPa 94% 16.2mm
09/05:02am SW 5-8 kts 14.3°c 1027.2 hPa 93% 15.4mm
09/05:00am SW 5-8 kts 14.2°c 1027.1 hPa 93% 15.4mm
09/04:30am SSW 4-5 kts 14.3°c 1027.0 hPa 93% 14.6mm
09/04:00am SSW 6-8 kts 14.4°c 1026.7 hPa 92% 14.0mm
09/03:30am S 6-8 kts 14.4°c 1027.0 hPa 92% 13.8mm
09/03:00am SSW 8-11 kts 14.4°c 1026.8 hPa 91% 13.4mm
09/02:30am SSW 10-15 kts 14.4°c 1026.9 hPa 93% 13.2mm
09/02:00am SSW 9-14 kts 14.4°c 1027.1 hPa 93% 13.2mm
09/01:30am SSW 10-14 kts 14.4°c 1027.2 hPa 93% 13.2mm
09/01:00am SSW 8-11 kts 14.3°c 1027.4 hPa 94% 12.6mm
09/12:39am SSW 11-14 kts 14.3°c 1027.7 hPa 94% 12.2mm
09/12:30am SSW 11-15 kts 14.2°c 1027.6 hPa 93% 12.2mm
09/12:28am SSW 11-15 kts 14.2°c 1027.6 hPa 93% 12.2mm
09/12:00am SSW 8-10 kts 14.3°c 1027.7 hPa 94% 11.8mm
Time Wind Speed Temp Pressure Rel. Hum Rain
08/11:30pm SSW 8-11 kts 14.2°c 1028.0 hPa 94% 10.0mm
08/11:09pm SSW 7-11 kts 14.3°c 1028.1 hPa 93% 8.4mm
08/11:01pm SSW 7-11 kts 14.3°c 1028.2 hPa 93% 7.8mm
08/11:00pm SSW 7-11 kts 14.4°c 1028.2 hPa 93% 7.8mm
08/10:43pm S 7-9 kts 14.3°c 1028.2 hPa 93% 7.6mm
08/10:30pm SSW 8-11 kts 14.4°c 1028.0 hPa 92% 7.2mm
08/10:25pm S 7-11 kts 14.3°c 1028.0 hPa 93% 7.2mm
08/10:13pm S 7-10 kts 14.3°c 1028.1 hPa 93% 7.0mm
08/10:00pm SSW 8-11 kts 14.4°c 1028.0 hPa 93% 6.4mm
08/09:47pm SSW 9-13 kts 14.4°c 1028.1 hPa 93% 6.4mm
08/09:30pm SSW 9-13 kts 14.4°c 1028.1 hPa 94% 6.2mm
08/09:00pm SSW 8-14 kts 14.4°c 1028.1 hPa 94% 5.6mm
08/08:30pm SSW 7-12 kts 14.4°c 1028.2 hPa 93% 3.6mm
08/08:27pm SSW 6-11 kts 14.4°c 1028.1 hPa 93% 3.2mm
08/08:09pm SSW 7-11 kts 14.4°c 1028.0 hPa 94% 2.6mm
08/08:00pm SSW 7-10 kts 14.4°c 1027.9 hPa 93% 2.2mm
08/07:30pm SSW 8-11 kts 14.5°c 1027.7 hPa 93% 1.2mm
08/07:18pm SSW 9-13 kts 14.5°c 1027.5 hPa 93% 1.2mm
08/07:14pm SSW 9-13 kts 14.6°c 1027.5 hPa 93% 1.2mm
08/07:00pm SSW 8-12 kts 14.7°c 1027.4 hPa 92% 1.0mm
08/06:40pm S 6-8 kts 14.7°c 1027.3 hPa 92% 0.8mm
08/06:30pm S 6-9 kts 14.7°c 1027.3 hPa 92% 0.8mm
08/06:22pm S 7-9 kts 14.8°c 1027.2 hPa 92% 0.8mm
08/06:01pm S 9-12 kts 14.9°c 1027.0 hPa 90% 0.0mm
08/06:00pm S 9-12 kts 15.0°c 1027.0 hPa 89% 0.0mm
08/05:49pm SSW 9-12 kts 15.1°c 1026.7 hPa 88% 0.0mm
08/05:31pm SSW 10-14 kts 15.3°c 1026.5 hPa 86% 0.0mm
08/05:30pm SSW 10-14 kts 15.4°c 1026.5 hPa 86% 0.0mm
08/05:00pm S 10-13 kts 16.4°c 1026.1 hPa 78% 0.0mm
08/04:30pm S 10-15 kts 16.9°c 1025.9 hPa 75% 0.0mm
08/04:00pm S 10-16 kts 17.7°c 1025.7 hPa 70% 0.0mm
08/03:30pm S 13-19 kts 18.1°c 1025.5 hPa 69% 0.0mm
08/03:00pm S 12-16 kts 18.6°c 1025.3 hPa 64% 0.0mm
08/02:30pm S 11-16 kts 21.2°c 1025.2 hPa 54% 0.0mm
08/02:00pm SSE 13-18 kts 19.5°c 1025.2 hPa 58% 0.0mm
08/01:30pm S 10-14 kts 21.0°c 1025.2 hPa 52% 0.0mm
08/01:00pm SSW 11-19 kts 20.7°c 1025.5 hPa 51% 0.0mm
08/12:30pm SSW 10-15 kts 20.3°c 1025.6 hPa 52% 0.0mm
08/12:00pm S 11-16 kts 20.7°c 1026.0 hPa 54% 0.0mm
08/11:30am SSW 12-19 kts 19.7°c 1026.4 hPa 54% 0.0mm
08/11:00am S 12-20 kts 19.5°c 1026.9 hPa 56% 0.0mm
08/10:30am S 13-18 kts 18.9°c 1027.2 hPa 58% 0.0mm
08/10:00am SSW 9-14 kts 18.5°c 1027.3 hPa 59% 0.0mm
08/09:30am SSW 11-18 kts 17.6°c 1027.4 hPa 61% 0.0mm
08/09:00am SSW 9-15 kts 17.4°c 1027.5 hPa 63% n/a
08/08:30am SW 9-14 kts 16.6°c 1027.2 hPa 64% n/a
08/08:00am SSW 9-13 kts 15.8°c 1027.1 hPa 65% n/a
08/07:30am SSW 8-11 kts 15.0°c 1026.8 hPa 69% n/a
08/07:00am SSW 7-10 kts 14.3°c 1026.8 hPa 72% n/a
08/06:30am SSW 8-13 kts 14.2°c 1026.5 hPa 71% n/a
08/06:00am SSW 8-13 kts 14.4°c 1026.1 hPa 71% n/a
08/05:30am SSW 8-13 kts 14.5°c 1025.8 hPa 71% n/a
08/05:00am SSW 9-13 kts 14.7°c 1025.5 hPa 70% n/a
08/04:30am SSW 8-12 kts 14.5°c 1025.4 hPa 71% n/a
08/04:00am SSW 7-10 kts 14.2°c 1025.6 hPa 71% n/a
08/03:30am SSW 9-13 kts 14.6°c 1025.8 hPa 70% n/a
08/03:00am SSW 9-12 kts 14.9°c 1025.9 hPa 70% 0.0mm
08/02:30am SSW 9-14 kts 15.0°c 1026.0 hPa 70% n/a
08/02:00am S 8-13 kts 14.9°c 1026.2 hPa 70% n/a
08/01:30am SSW 8-13 kts 14.8°c 1026.2 hPa 71% n/a
08/01:00am S 8-12 kts 14.4°c 1026.5 hPa 71% n/a
08/12:30am SSW 8-12 kts 15.3°c 1026.7 hPa 68% n/a
08/12:00am SW 8-11 kts 15.4°c 1026.8 hPa 68% n/a